Location: Berg
(47.2344°N, 9.5296°E)
Time: 04:01:38
(UTC+00:00)

BEESAT 2 - Pass Details

Date: 05 December 2021
Orbit: 498 x 513 km, 64.9° (Epoch: 19 January)

Event Time Altitude Azimuth Distance (km) Brightness Sun altitude
Exits shadow 03:55:32 18° 40° (NE) 1,342 ? -29.1°
Drops below altitude 10° 03:57:57 10° 78° (ENE) 1,747 ? -28.7°
Sets 04:00:41 0° 99° (E) 2,629 ? -28.2°
